COSMOS 2491 DEB, 45129

Orbit data source: Space-Track

COSMOS 2491 DEB, 45129 is space debris in LEO originally from a launch on Wed, 25 Dec 2013 UTC launched from the Plesetsk Missile And Space Complex (PKMTR). Debris objects in space refer to the collection of defunct objects orbiting the Earth. Examples of debris include non-operational satellites, rocket bodies, and fragments generated from explosions, collisions, or faulty payload assembly.

Loading next visibility...
Identifier
45129, 2013-076AB
Orbit
LEO
Country
Flag of CISCIS
Related business
Manufacturer
TsNIIKhM
Mission
Spacecraft
Bus & Motor
Unknown
Mass
Unknown
Launch date (UTC)
2013-12-25 (13 years ago)
Launch vehicle
Unknown
Launch site
Plesetsk Missile And Space Complex (PKMTR)
Object type
Payload
Rocket body
Debris
Shape & HBR
Unknown shape, 0.1 m
Radar Cross Section
Small (<0.1 m²)

Expand to show TLE details & history
Last TLE update: 2 weeks ago

TLE from 2 weeks ago
0 COSMOS 2491 DEB
1 45129U 13076AB  26237.23776100  .00002116  00000-0  98499-2 0  9995
2 45129  82.4444  66.0453 0198927 325.8629  32.9803 12.69713629167841
Epoch: 2026-08-25T05:42Z
TLE epoch observation values (Epoch: 2026-08-25T05:42:22.550Z)
Latitude
0.00001°
Longitude
6.94336°
Altitude
1,257.244 km
Speed
7.286 km/s
True Right ascension
04h 24m 10s
True Declination
0° 00' 00"
Sunlit
Object was in daylight at epoch
Visualization orbit readout
Latitude
Unknown
Longitude
Unknown
Altitude
Unknown
Speed
Unknown
Apparent Right ascension
Unknown
Apparent Declination
Unknown
Sunlit
N/A
Visualization observer readout
Local Sidereal Time
11:01:22
Azimuth
Unknown
Elevation
Unknown
Doppler factor
Unknown
Orbital elements
Apogee altitude
1,534.759 km
Perigee altitude
1,226.082 km
Semi-major axis
7,758.557 km
Eccentricity
0.01989
Inclination
82.4444°
RAAN
66.0453°
Arg. of periapsis
325.8629°
True anomaly
34.24747°
Mean anomaly
32.9803°
Eccentric anomaly
33.61122°
Mean motion
3.17594 °/min
Orbital period
113.35 mins
BSTAR
0.0098499
Loading maneuver chart data...
Computing Atmospheric mass density...
Loading historical data...
Loading historical data...
Loading historical data...
Loading historical data...
Loading historical data...
Loading historical data...
Loading historical data...

Documentation

Showing up to 5 results
|